Regional Weather Roundup
Issued by NWS Jackson, KY

Home | Current Version | Previous Version | Text Only | Print | Product List | Glossary Off
Versions: 1 2 3 4 5 6 7 8 9 10 11 12 13 14 15 16 17 18 19 20 21 22 23 24 25 26 27 28 29 30 31 32 33 34 35 36 37 38 39 40 41 42 43 44 45 46 47 48

000
ASUS43 KJKL 011410
RWRJKL

EAST KENTUCKY HOURLY WEATHER ROUNDUP
NATIONAL WEATHER SERVICE JACKSON KY
1000 AM EDT TUE SEP 01 2015

NOTE: "FAIR" INDICATES FEW OR NO CLOUDS BELOW 12,000 FEET WITH
NO SIGNIFICANT WEATHER AND/OR OBSTRUCTIONS TO VISIBILITY.

* THESE REPORTS ARE NOT UNDER NWS QUALITY CONTROL AND MAY NOT
  REPORT WEATHER SUCH AS PRECIPITATION AND FOG.

KYZ079-080-083-085-087-088-110-112-115-119-120-011500
...EASTERN KENTUCKY...

CITY           SKY/WX    TMP DP  RH WIND       PRES   REMARKS
JACKSON        SUNNY     77  67  71 CALM      30.20S
LONDON         SUNNY     75  65  70 CALM      30.19S
SOMERSET*      MOSUNNY   72  68  88 CALM      30.20R
MONTICELLO*    SUNNY     76  71  84 CALM      30.21R
WILLIAMSBURG*  CLOUDY    64  64 100 CALM      30.20R
MIDDLESBORO*   CLOUDY    66  65  97 CALM      30.21S
HAZARD APT*    SUNNY     73  70  88 CALM      30.20
BLACK MTN*       N/A     72  64  78 N1          N/A
PIKEVILLE APT* CLOUDY    68  68 100 CALM      30.21R FOG
BIG SANDY*     SUNNY     74  69  84 CALM      30.20R
MOREHEAD APT*  SUNNY     75  68  78 CALM      30.20S
$$

KYZ035-036-041-042-044-050-067-078-099-011500
...CENTRAL KENTUCKY...

CITY           SKY/WX    TMP DP  RH WIND       PRES   REMARKS
MT STERLING*   SUNNY     77  68  73 CALM      30.20S
FLEMING/MASON* SUNNY     75  66  73 CALM      30.19S
DANVILLE*      MOSUNNY   75  66  73 CALM      30.19S
RICHMOND*      MOSUNNY   73  64  73 CALM      30.18S
LEXINGTON      SUNNY     79  67  66 CALM      30.18S
FRANKFORT      SUNNY     76  66  71 CALM      30.16S
$$

KYZ091>093-OHZ055-061-077-WVZ005-015-034-035-042-011500
...SOUTHERN OHIO/WEST VIRGINIA...

CITY           SKY/WX    TMP DP  RH WIND       PRES   REMARKS
COVINGTON      MOSUNNY   79  67  66 CALM      30.16S
COLUMBUS       MOSUNNY   76  68  76 CALM      30.15S
DAYTON         MOSUNNY   78  70  76 SW3       30.17S
WILMINGTON     SUNNY     78  68  71 W3        30.16F
HUNTINGTON     SUNNY     75  69  81 CALM      30.17R
CHARLESTON     MOSUNNY   74  67  78 CALM      30.18R
PINEVILLE*     CLOUDY    69  69 100 MISG      30.27R
BECKLEY        SUNNY     73  63  70 W3        30.25R
BLUEFIELD      CLOUDY    73  62  68 W5        30.27R
$$

VAZ002-007-008-TNZ017-027-036-066-071-011500
...SOUTHWEST VIRGINIA/EAST TENNESSEE...

CITY           SKY/WX    TMP DP  RH WIND       PRES   REMARKS
WISE*          SUNNY     75  63  64 NE5       30.28R
JONESVILLE*    SUNNY     73  64  73 CALM      30.22S
ABINGDON*      SUNNY     75  63  64 CALM      30.23S
BRISTOL        MOSUNNY   73  65  75 CALM      30.20S
KNOXVILLE      MOSUNNY   74  69  85 N5        30.17R
OAK RIDGE      SUNNY     75  67  76 E3        30.18S
CROSSVILLE     PTSUNNY   76  66  71 CALM      30.21S
NASHVILLE      PTSUNNY   79  68  69 CALM      30.16S
$$

...KEY TO REMARKS...
VSB - VISIBILITY IN MILES
WCI - WIND CHILL INDEX
HX  - HEAT INDEX

$$


USA.gov is the U.S. government's official web portal to all federal, state and local government web resources and services.